Alev Kaman — TCCN5 — position and weather

sailwx.info

Track history (hours):
 
Tides and Currents Weather Stations Pressure Air Temp Water Temp Dewpoint Dewpoint Depression Visibility Wind Speed Wind Dir Waves Ship Positions

Alev Kaman

Last reported at 2014-Sep-29 20:33 UTC. Time now 2014-Sep-30 19:56 UTC.
Position N 40°59' E 028°60'.

Length 93 m; draft 6.1 m.

Type: Tanker. MMSI: 271000716.

Date/timePositionNaut miles runAvg speedWind from/ knotsBaromVisibWave heightAir tempDewpointWater temp
2014-Sep-29 20:33N 40°59' E 028°60'5 4.8
2014-Sep-29 19:27N 40°56' E 028°55'2 0.3
2014-Sep-29 11:08N 40°57' E 028°52'0 0.0
2014-Sep-29 09:13N 40°57' E 028°52'0 0.0
2014-Sep-29 07:18N 40°57' E 028°52'0 0.0
2014-Sep-29 05:15N 40°57' E 028°52'0 0.0
2014-Sep-29 04:14N 40°57' E 028°52'0 0.0
2014-Sep-29 03:23N 40°57' E 028°52'0 0.0
2014-Sep-28 17:23N 40°57' E 028°52'0 0.1
2014-Sep-28 16:33N 40°57' E 028°52'0 0.0
2014-Sep-28 15:27N 40°57' E 028°52'0 0.0
2014-Sep-28 14:29N 40°57' E 028°52'0 0.1
2014-Sep-28 13:27N 40°57' E 028°52'7 7.5
2014-Sep-28 12:32N 40°54' E 028°60'9 8.9
2014-Sep-28 11:32N 40°47' E 029°08'1010.0
2014-Sep-28 10:32N 40°45' E 029°21'9 8.7
2014-Sep-28 09:32N 40°46' E 029°32'1 0.0
2014-Sep-27 11:34N 40°46' E 029°33'5 0.3
2014-Sep-26 18:28N 40°45' E 029°40'8 8.4
2014-Sep-26 17:33N 40°45' E 029°30'9 9.4
2014-Sep-26 16:32N 40°44' E 029°17'9 9.3
2014-Sep-26 15:33N 40°44' E 029°05'9 9.5
2014-Sep-26 14:33N 40°44' E 028°53'  
2014-Sep-23 19:29N 40°52' E 028°43'8 8.6
2014-Sep-23 18:33N 40°50' E 028°53'9 8.7
2014-Sep-23 17:33N 40°48' E 029°04'9 8.8
2014-Sep-23 16:33N 40°45' E 029°15'8 7.8
2014-Sep-23 15:32N 40°45' E 029°26'10 0.4
2014-Sep-22 16:08N 40°46' E 029°39'7 2.6
2014-Sep-22 13:33N 40°45' E 029°30'10 9.7
2014-Sep-22 12:33N 40°44' E 029°18'1110.6
2014-Sep-22 11:33N 40°44' E 029°03'1110.8
2014-Sep-22 10:33N 40°45' E 028°49'6 0.2
2014-Sep-21 09:33N 40°44' E 028°42'9 9.1
2014-Sep-21 08:33N 40°44' E 028°54'9 8.7
2014-Sep-21 07:31N 40°44' E 029°06'9 9.2
2014-Sep-21 06:33N 40°44' E 029°17'10 8.4
2014-Sep-21 05:20N 40°45' E 029°31'7 7.5
2014-Sep-21 04:23N 40°45' E 029°40'  
Track history (hours):
 
Tides and Currents Weather Stations Pressure Air Temp Water Temp Dewpoint Dewpoint Depression Visibility Wind Speed Wind Dir Waves Ship Positions

Alev Kaman

Last reported at 2014-Sep-29 20:33 UTC. Time now 2014-Sep-30 19:56 UTC.
Position N 40°59' E 028°60'.

Length 93 m; draft 6.1 m.

Type: Tanker. MMSI: 271000716.

Date/timePositionNaut miles runAvg speedWind from/ knotsBaromVisibWave heightAir tempDewpointWater temp
2014-Sep-29 20:33N 40°59' E 028°60'5 4.8
2014-Sep-29 19:27N 40°56' E 028°55'2 0.3
2014-Sep-29 11:08N 40°57' E 028°52'0 0.0
2014-Sep-29 09:13N 40°57' E 028°52'0 0.0
2014-Sep-29 07:18N 40°57' E 028°52'0 0.0
2014-Sep-29 05:15N 40°57' E 028°52'0 0.0
2014-Sep-29 04:14N 40°57' E 028°52'0 0.0
2014-Sep-29 03:23N 40°57' E 028°52'0 0.0
2014-Sep-28 17:23N 40°57' E 028°52'0 0.1
2014-Sep-28 16:33N 40°57' E 028°52'0 0.0
2014-Sep-28 15:27N 40°57' E 028°52'0 0.0
2014-Sep-28 14:29N 40°57' E 028°52'0 0.1
2014-Sep-28 13:27N 40°57' E 028°52'7 7.5
2014-Sep-28 12:32N 40°54' E 028°60'9 8.9
2014-Sep-28 11:32N 40°47' E 029°08'1010.0
2014-Sep-28 10:32N 40°45' E 029°21'9 8.7
2014-Sep-28 09:32N 40°46' E 029°32'1 0.0
2014-Sep-27 11:34N 40°46' E 029°33'5 0.3
2014-Sep-26 18:28N 40°45' E 029°40'8 8.4
2014-Sep-26 17:33N 40°45' E 029°30'9 9.4
2014-Sep-26 16:32N 40°44' E 029°17'9 9.3
2014-Sep-26 15:33N 40°44' E 029°05'9 9.5
2014-Sep-26 14:33N 40°44' E 028°53'  
2014-Sep-23 19:29N 40°52' E 028°43'8 8.6
2014-Sep-23 18:33N 40°50' E 028°53'9 8.7
2014-Sep-23 17:33N 40°48' E 029°04'9 8.8
2014-Sep-23 16:33N 40°45' E 029°15'8 7.8
2014-Sep-23 15:32N 40°45' E 029°26'10 0.4
2014-Sep-22 16:08N 40°46' E 029°39'7 2.6
2014-Sep-22 13:33N 40°45' E 029°30'10 9.7
2014-Sep-22 12:33N 40°44' E 029°18'1110.6
2014-Sep-22 11:33N 40°44' E 029°03'1110.8
2014-Sep-22 10:33N 40°45' E 028°49'6 0.2
2014-Sep-21 09:33N 40°44' E 028°42'9 9.1
2014-Sep-21 08:33N 40°44' E 028°54'9 8.7
2014-Sep-21 07:31N 40°44' E 029°06'9 9.2
2014-Sep-21 06:33N 40°44' E 029°17'10 8.4
2014-Sep-21 05:20N 40°45' E 029°31'7 7.5
2014-Sep-21 04:23N 40°45' E 029°40'  

Dump ship's entire track history